Погода в Лукине

Россия / Нижегородская область     56˚26′28″N   43˚37′42″E
темп.,
°C
ветер,
м/с
пор.,
м/с
влажн.,
%
обл.,
%
осадки,
мм/ч
давл.,
гПа
погр.,
м
17 января, вс
вс1700:00−14˚ссз4895100 0.2 1001357
03:00−16˚сз4894100 0.3 1004296
06:00−18˚сз5893100 0.1 1005403
09:00−21˚сз479698 0.1 1008213
12:00−21˚сз359367 0.0 1012263
15:00−21˚сз359544 0.0 1013148
18:00−23˚ссз23960 0.0 101624
21:00−25˚ссз11980 0.0 101820
18 января, пн
пн1800:00−25˚ссз11984 0.0 101920
03:00−25˚св11982 0.0 101920
06:00−26˚ююз229949 0.0 101919
09:00−26˚юз119866 0.0 102120
12:00−21˚з009421 0.0 1020119
15:00−21˚ю229651 0.0 101926
18:00−24˚ююз129760 0.0 101920
21:00−25˚вюв009879 0.0 101920
19 января, вт
вт1900:00−24˚св0096100 0.0 101920
03:00−24˚юв1296100 0.0 101920
06:00−25˚в1196100 0.0 101820
09:00−24˚св1195100 0.0 101820
12:00−20˚св1191100 0.0 1017139
15:00−20˚сз0194100 0.0 101620
18:00−22˚с1195100 0.0 101620
21:00−23˚ссз119994 0.0 101620
20 января, ср
ср2000:00−21˚сз119981 0.1 101520
03:00−19˚зсз229885 0.1 101640
06:00−19˚зсз239885 0.1 101562
09:00−19˚зсз239783 0.1 101652
12:00−15˚з359489 0.1 1016262
15:00−13˚з369593 0.1 1015267
18:00−13˚з499587 0.1 1016289
21:00−14˚з489587 0.2 1017209
21 января, чт
чт2100:00−14˚з489693 0.1 1017229
03:00−15˚з489588 0.3 1018247
06:00−15˚з479696 0.3 1018248
09:00−14˚зюз479598 0.4 1018252
12:00−13˚зюз4793100 0.0 1018276
15:00−14˚юз239594 0.1 101786
18:00−17˚ююз239537 0.0 101721
21:00−17˚ююз239668 0.0 101621